Change the Weather History Date:

Friday, December 14, 2012

  Actual Average Record
Temperature  
Mean Temperature 43 °F -  
Max Temperature 53 °F 47 °F 72 °F (1988)
Min Temperature 33 °F 24 °F 1 °F (1943)
Degree Days  
Heating Degree Days 22    
Moisture  
Dew Point 34 °F    
Average Humidity 68    
Maximum Humidity 82    
Minimum Humidity 38    
Precipitation  
Precipitation 0.14 in - - ()
Sea Level Pressure  
Sea Level Pressure 29.74 in    
Wind  
Wind Speed 14 mph (South)    
Max Wind Speed 28 mph    
Max Gust Speed 36 mph    
Visibility 10 miles    
Events Thunderstorm    
Averages and records for this station are not official NWS values.
T = Trace of Precipitation, MM = Missing Value Source: NWS Daily Summary

Daily Weather History Graph

Daily Weather History Graph

Search for Another Location

Airport or City:

Trip Planner

Search our weather history database for the weather conditions in past years. The results will help you decide how hot, cold, wet, or windy it might be!

Date:

Astronomy

Dec. 14, 2012 Rise Set
Actual Time 7:49 AM CST 5:27 PM CST
Civil Twilight 7:20 AM CST 5:56 PM CST
Nautical Twilight 6:48 AM CST 6:29 PM CST
Astronomical Twilight 6:16 AM CST 7:01 PM CST
Moon 8:57 AM CST (12/14) 7:21 PM CST (12/14)
Length of Visible Light 10h 36m
Length of Day
9h 38m
Waxing Crescent, 3% of the Moon is Illuminated
Dec 14
Waxing Crescent
Dec 19
First Quarter
Dec 28
Full
Jan 4
Last Quarter
Jan 11
New

Hourly Weather History & Observations

Time (CST) Temp. Windchill Dew Point Humidity Pressure Visibility Wind Dir Wind Speed Gust Speed Precip Events Conditions
12:15 AM 33.8 °F 26.4 °F 10.4 °F 38% 29.97 in 10.0 mi SSW 9.2 mph - N/A   Clear
12:35 AM 35.6 °F 29.2 °F 12.2 °F 38% 29.97 in 10.0 mi SW 8.1 mph - N/A   Clear
12:55 AM 33.8 °F 26.4 °F 10.4 °F 38% 29.97 in 10.0 mi SW 9.2 mph - N/A   Clear
1:15 AM 33.8 °F 26.4 °F 14.0 °F 44% 29.96 in 10.0 mi SSW 9.2 mph - N/A   Clear
1:35 AM 35.6 °F 28.0 °F 12.2 °F 38% 29.96 in 10.0 mi SSW 10.4 mph - N/A   Clear
1:55 AM 35.6 °F 28.6 °F 14.0 °F 41% 29.96 in 10.0 mi SSW 9.2 mph - N/A   Clear
2:15 AM 35.6 °F 28.6 °F 15.8 °F 44% 29.96 in 10.0 mi SSW 9.2 mph - N/A   Clear
2:35 AM 35.6 °F 28.0 °F 17.6 °F 48% 29.96 in 10.0 mi SSW 10.4 mph - N/A   Clear
2:55 AM 35.6 °F 28.0 °F 17.6 °F 48% 29.96 in 10.0 mi SSW 10.4 mph - N/A   Clear
3:15 AM 35.6 °F 28.6 °F 19.4 °F 52% 29.95 in 10.0 mi SSW 9.2 mph - N/A   Clear
3:35 AM 35.6 °F 28.6 °F 19.4 °F 52% 29.94 in 10.0 mi SSW 9.2 mph - N/A   Clear
3:55 AM 33.8 °F 27.0 °F 17.6 °F 52% 29.93 in 10.0 mi SSW 8.1 mph - N/A   Clear
4:15 AM 35.6 °F 27.5 °F 21.2 °F 56% 29.92 in 10.0 mi South 11.5 mph - N/A   Clear
4:35 AM 35.6 °F 28.0 °F 23.0 °F 60% 29.92 in 10.0 mi South 10.4 mph - N/A   Clear
4:55 AM 37.4 °F 29.8 °F 26.6 °F 65% 29.91 in 10.0 mi ESE 11.5 mph - N/A   Clear
5:15 AM 35.6 °F 27.1 °F 24.8 °F 65% 29.90 in 10.0 mi SE 12.7 mph - N/A   Clear
5:35 AM 37.4 °F 29.3 °F 26.6 °F 65% 29.90 in 10.0 mi ESE 12.7 mph - N/A   Clear
5:55 AM 35.6 °F 26.2 °F 26.6 °F 70% 29.90 in 10.0 mi ESE 15.0 mph - N/A   Clear
6:15 AM 35.6 °F 27.5 °F 24.8 °F 65% 29.90 in 10.0 mi ESE 11.5 mph - N/A   Clear
6:35 AM 35.6 °F 27.5 °F 26.6 °F 70% 29.90 in 10.0 mi East 11.5 mph - N/A   Clear
6:55 AM 33.8 °F 26.4 °F 26.6 °F 75% 29.90 in 10.0 mi SE 9.2 mph - N/A   Clear
7:15 AM 33.8 °F 25.8 °F 26.6 °F 75% 29.90 in 10.0 mi East 10.4 mph - N/A   Clear
7:35 AM 37.4 °F 29.8 °F 28.4 °F 70% 29.89 in 10.0 mi East 11.5 mph - N/A   Clear
7:55 AM 37.4 °F 30.3 °F 30.2 °F 75% 29.88 in 10.0 mi East 10.4 mph - N/A   Clear
8:15 AM 37.4 °F 30.8 °F 30.2 °F 75% 29.87 in 10.0 mi East 9.2 mph - N/A   Clear
8:35 AM 37.4 °F 30.8 °F 30.2 °F 75% 29.87 in 10.0 mi SE 9.2 mph - N/A   Clear
8:55 AM 39.2 °F 33.0 °F 32.0 °F 75% 29.87 in 10.0 mi SE 9.2 mph - N/A   Clear
9:15 AM 41.0 °F 34.7 °F 33.8 °F 76% 29.87 in 10.0 mi ESE 10.4 mph - N/A   Clear
9:35 AM 42.8 °F 36.2 °F 35.6 °F 76% 29.87 in 10.0 mi ESE 12.7 mph - N/A   Partly Cloudy
9:55 AM 46.4 °F 40.1 °F 37.4 °F 71% 29.86 in 10.0 mi ESE 15.0 mph - N/A   Scattered Clouds
10:15 AM 48.2 °F - 39.2 °F 71% 29.85 in 10.0 mi ESE 18.4 mph 21.9 mph N/A   Clear
10:35 AM 48.2 °F - 39.2 °F 71% 29.84 in 10.0 mi SE 19.6 mph 26.5 mph N/A   Scattered Clouds
10:55 AM 50.0 °F - 41.0 °F 71% 29.84 in 10.0 mi South 18.4 mph - N/A   Overcast
11:15 AM 51.8 °F - 42.8 °F 71% 29.83 in 10.0 mi South 20.7 mph 25.3 mph N/A   Overcast
11:35 AM 53.6 °F - 42.8 °F 67% 29.81 in 10.0 mi South 18.4 mph 26.5 mph N/A   Overcast
11:55 AM 51.8 °F - 42.8 °F 71% 29.80 in 10.0 mi South 27.6 mph 31.1 mph N/A   Overcast
12:15 PM 51.8 °F - 42.8 °F 71% 29.78 in 10.0 mi South 25.3 mph 29.9 mph N/A   Overcast
12:35 PM 50.0 °F - 42.8 °F 76% 29.78 in 9.0 mi South 20.7 mph - N/A   Overcast
12:55 PM 50.0 °F - 42.8 °F 76% 29.74 in 10.0 mi South 17.3 mph 21.9 mph N/A   Overcast
1:15 PM 51.8 °F - 44.6 °F 76% 29.71 in 10.0 mi SSE 15.0 mph - N/A   Overcast
1:35 PM 51.8 °F - 44.6 °F 76% 29.70 in 10.0 mi SSE 17.3 mph - N/A   Overcast
1:55 PM 53.6 °F - 44.6 °F 72% 29.69 in 10.0 mi South 24.2 mph 28.8 mph N/A   Overcast
2:15 PM 53.6 °F - 44.6 °F 72% 29.67 in 10.0 mi South 19.6 mph 24.2 mph N/A   Overcast
2:35 PM 53.6 °F - 44.6 °F 72% 29.66 in 10.0 mi South 18.4 mph - N/A   Overcast
2:55 PM 53.6 °F - 44.6 °F 72% 29.65 in 10.0 mi South 13.8 mph 19.6 mph N/A   Overcast
3:15 PM 53.6 °F - 44.6 °F 72% 29.65 in 10.0 mi South 12.7 mph - N/A   Overcast
3:35 PM 53.6 °F - 44.6 °F 72% 29.63 in 10.0 mi SE 9.2 mph - N/A   Overcast
4:15 PM 53.6 °F - 46.4 °F 77% 29.60 in 10.0 mi SSE 16.1 mph 24.2 mph N/A   Overcast
4:35 PM 53.6 °F - 46.4 °F 77% 29.58 in 10.0 mi South 18.4 mph 21.9 mph N/A   Overcast
4:55 PM 53.6 °F - 46.4 °F 77% 29.56 in 10.0 mi SSE 19.6 mph 27.6 mph N/A   Overcast
5:15 PM 53.6 °F - 46.4 °F 77% 29.56 in 10.0 mi SSE 17.3 mph 25.3 mph N/A   Overcast
5:35 PM 51.8 °F - 44.6 °F 76% 29.56 in 8.0 mi SSE 20.7 mph 27.6 mph 0.02 in   Overcast
5:55 PM 51.8 °F - 44.6 °F 76% 29.54 in 8.0 mi SSE 9.2 mph - 0.11 in Thunderstorm Overcast
6:15 PM 50.0 °F - 44.6 °F 82% 29.52 in 10.0 mi SSE 25.3 mph 31.1 mph 0.03 in   Overcast
6:35 PM 50.0 °F - 44.6 °F 82% 29.51 in 10.0 mi South 27.6 mph 35.7 mph 0.03 in   Overcast
6:55 PM 48.2 °F - 42.8 °F 82% 29.49 in 10.0 mi SSW 15.0 mph - 0.03 in   Mostly Cloudy
7:15 PM 46.4 °F 38.7 °F 41.0 °F 81% 29.49 in 10.0 mi SSW 20.7 mph 27.6 mph N/A   Scattered Clouds
7:55 PM 44.6 °F 35.5 °F 39.2 °F 81% 29.50 in 10.0 mi SSW 25.3 mph 29.9 mph N/A   Clear
8:15 PM 44.6 °F 36.1 °F 39.2 °F 81% 29.49 in 10.0 mi SSW 21.9 mph 28.8 mph N/A   Partly Cloudy
8:35 PM 44.6 °F 36.4 °F 39.2 °F 81% 29.48 in 10.0 mi SSW 20.7 mph 24.2 mph N/A   Clear
8:55 PM 46.4 °F 38.5 °F 39.2 °F 76% 29.47 in 10.0 mi SSW 21.9 mph 28.8 mph N/A   Clear
9:15 PM 44.6 °F 36.4 °F 37.4 °F 76% 29.46 in 10.0 mi SSW 20.7 mph 25.3 mph N/A   Partly Cloudy
9:35 PM 44.6 °F 37.2 °F 37.4 °F 76% 29.45 in 10.0 mi SW 17.3 mph 24.2 mph N/A   Mostly Cloudy
9:55 PM 44.6 °F 36.1 °F 37.4 °F 76% 29.45 in 10.0 mi SW 21.9 mph 28.8 mph N/A   Overcast
10:15 PM 44.6 °F 36.4 °F 37.4 °F 76% 29.44 in 10.0 mi WSW 20.7 mph 29.9 mph N/A   Overcast
10:35 PM 46.4 °F 37.5 °F 39.2 °F 76% 29.44 in 10.0 mi WSW 27.6 mph 32.2 mph N/A   Overcast
10:55 PM 48.2 °F - 37.4 °F 66% 29.45 in 10.0 mi WSW 27.6 mph 35.7 mph N/A   Overcast
11:15 PM 48.2 °F - 37.4 °F 66% 29.46 in 10.0 mi WSW 27.6 mph 32.2 mph N/A   Overcast
11:35 PM 46.4 °F 37.7 °F 37.4 °F 71% 29.46 in 10.0 mi WSW 26.5 mph 32.2 mph N/A   Overcast
11:55 PM 46.4 °F 37.9 °F 35.6 °F 66% 29.47 in 10.0 mi WSW 25.3 mph 33.4 mph N/A   Scattered Clouds